Regional Weather Roundup
Issued by NWS

Home | Current Version | Previous Version | Text Only | Print | Product List | Glossary On
Versions: 1 2 3 4 5 6 7 8 9 10 11 12 13 14 15 16 17 18 19 20 21 22 23 24 25 26 27 28 29 30 31 32 33 34 35 36 37 38 39 40 41 42 43 44 45 46 47 48
265
ASCA42 TJSJ 071010
RWRPR
PUERTO RICO/U.S. VIRGIN ISLANDS HOURLY WEATHER ROUNDUP
NATIONAL WEATHER SERVICE SAN JUAN PR
600 AM AST SUN FEB 07 2016

PRZ001-004-071100-
PUERTO RICO

CITY           SKY/WX    TMP DP  RH WIND       PRES   REMARKS
SAN JUAN LMM   MOCLDY    72  70  94 CALM      30.02R
CEIBA          CLOUDY    73  73 100 SE7       30.03R
$$

PRZ006-007-071100-
U.S. VIRGIN ISLANDS

CITY           SKY/WX    TMP DP  RH WIND       PRES   REMARKS
CHARLOTTE AMA  PTCLDY    79  72  78 SE17      30.01R
CHRISTIANSTED  PTCLDY    79  70  73 E14       30.03R
$$

HOURLY WEATHER ROUNDUP FOR THE NEWS MEDIA

CITY           SKY/WX    TMP DP  RH WIND       PRES   REMARKS
ORLANDO        CLOUDY    46  42  86 NW15G25   29.96F
NEW YORK       CLEAR     33  26  75 W7        30.21F WCI  27
NEWARK         CLEAR     30  24  78 S3        30.20F
CHICAGO        CLOUDY    37  29  72 S14       29.92F WCI  28
HARTFORD       CLEAR     23  23 100 CALM      30.18F FOG
BOSTON         CLEAR     31  23  72 SW8       30.17S WCI  23
DALLAS         PTCLDY    37  33  85 CALM      30.25F
PHILADELPHIA   PTCLDY    32  24  72 CALM      30.22S
LOS ANGELES    CLEAR     58  29  33 NE3       30.16S
WASHINGTON DC  FAIR      24  21  88 SE3       30.20F



USA.gov is the U.S. government's official web portal to all federal, state and local government web resources and services.